Tracking 32579 objects as of 15-Dec-2025
HD Live streaming from Space Station
objects crossing your sky now

CUBEBUG 2

Track CUBEBUG 2 now!
10-day predictions
CUBEBUG 2 is classified as:


NORAD ID: 39440
Int'l Code: 2013-066AA
Perigee: 558.4 km
Apogee: 639.2 km
Inclination: 97.9 °
Period: 96.5 minutes
Semi major axis: 6969 km
RCS: Unknown
Launch date: November 21, 2013
Source: Argentina (ARGN)
Launch site: Orenburg, Russia (OREN)

Uplink (MHz):
Downlink (MHz): 437.445
Beacon (MHz):
Mode: 1k2AFSK 9k6* FSK
Call sign: CUBEB2-6
Status: Active


Uplink (MHz):
Downlink (MHz): 437.445
Beacon (MHz):
Mode: 1k2AFSK 9k6FSK
Call sign: CUBEB2-6
Status: Active

Your satellite tracking list
Your tracking list is empty




NASA's NSSDC Master Catalog

Two Line Element Set (TLE):
1 39440U 13066AA  25349.35473435  .00003083  00000-0  30041-3 0  9998
2 39440  97.8706 293.0229 0057962 277.0207  82.4422 14.91999807649569
Source of the keplerian elements: Caltech